Regional Weather Roundup
Issued by NWS Cleveland, OH

Home | Current Version | Previous Version | Text Only | Print | Product List | Glossary Off
Versions: 1 2 3 4 5 6 7 8 9 10 11 12 13 14 15 16 17 18 19 20 21 22 23 24 25 26 27 28 29 30 31 32 33 34 35 36 37 38 39 40 41 42 43 44 45 46 47 48 49 50

000
ASUS41 KCLE 201412
RWRCLE
OHIO REGIONAL WEATHER ROUNDUP
NATIONAL WEATHER SERVICE WILMINGTON, OH
1000 AM EDT FRI OCT 20 2017

NOTE: "FAIR" INDICATES FEW OR NO CLOUDS BELOW 12,000 FEET WITH NO
SIGNIFICANT WEATHER AND/OR OBSTRUCTIONS TO VISIBILITY.

OHZ001>008-015>018-024>027-034-035-043-044-201500-
   NORTHWEST OHIO

CITY           SKY/WX    TMP DP  RH WIND       PRES   REMARKS
DEFIANCE       FAIR      54  44  69 S6        30.29S
FINDLAY        FAIR      57  43  59 S5        30.29S
TOLEDO EXPRESS FAIR      55  43  63 S3        30.29S
TOLEDO EXEC    FAIR      54  42  64 S3        30.30S
LIMA           FAIR      56  51  84 S6        30.30R
$$

OHZ009>014-019>023-028>033-038-089-201500-
   NORTHEAST OHIO

CITY           SKY/WX    TMP DP  RH WIND       PRES   REMARKS
CLE-HOPKINS    FAIR      56  48  74 SE5       30.33R
CLE-LAKEFRONT  FAIR      58  47  66 SE8       30.30R
CUY CO. ARPT   MOSUNNY   63  46  55 SE6       30.32R
LORAIN-ELYRIA  FAIR      52  43  71 CALM      30.31S
ASHTABULA      FAIR      53  49  86 CALM      30.32R
AKRON-CANTON   FAIR      58  49  72 CALM      30.32R
WOOSTER        FAIR      54  47  77 CALM      30.33R
MANSFIELD      FAIR      56  48  74 S3        30.32R
YOUNGSTOWN     FAIR      59  46  62 CALM      30.32R
$$

OHZ042-051>053-060>062-070>072-077>081-201500-
  SOUTHWEST OHIO

CITY           SKY/WX    TMP DP  RH WIND       PRES   REMARKS
CINC-COVINGTON FAIR      59  55  87 CALM      30.32R
CINC-LUNKEN    FAIR      52  52 100 CALM      30.34R FOG
HAMILTON       FAIR      54  53  97 CALM      30.33S
DAYTON         FAIR      58  54  86 CALM      30.32R
WRIGHT-PAT AFB SUNNY     56  53  91 CALM      30.32R
DAYTON GENERAL FAIR      58  52  80 S3        30.31R
WILMINGTON     FAIR      60  54  80 CALM      30.32R
$$

OHZ036-037-039>041-045>050-054>059-063>069-073>076-082>088-201500-
  CENTRAL AND SOUTHEAST OHIO

CITY           SKY/WX    TMP DP  RH WIND       PRES   REMARKS
COLUMBUS       FAIR      55  51  86 SE3       30.32R
OSU AIRPORT    FAIR      57  52  83 CALM      30.32R
BOLTON FIELD   SUNNY     54  52  94 CALM      30.33S
RICKENBACK AFB FAIR      52  51  95 CALM      30.32S
NEWARK         FAIR      54  49  83 CALM      30.32R
MARION         FAIR      55  48  77 S3        30.31S
LANCASTER      FAIR      56  52  86 CALM      30.33R
ZANESVILLE     FAIR      53  49  86 CALM      30.33R
NEW PHILLY     FAIR      51  49  92 CALM      30.34R FOG
$$




USA.gov is the U.S. government's official web portal to all federal, state and local government web resources and services.